Starlink 4055

operational
NORAD ID: 53161 Int'l Des: 2022-083 Owner: SPXS Country: US Constellation: starlink
LEOCIRCULAR

About Starlink 4055

Description loading...

Live Position

Loading 3D Globe...

Upcoming Passes

Altitude History

Altitude vs Time

uPlot chart will show altitude changes over time

Two-Line Element Set

1 53161U 22083AF 25296.64695988 .00000066 00000-0 22226-4 0 9990
2 53161 53.2180 59.3296 0001254 97.1014 263.0121 15.08835515180673
Epoch: Oct 23, 2025 • Age: 10 hours

Current Status

Altitude 548.9 km
Velocity 7.59 km/s
Sub-Earth Point -28.89°S, 161.48°W
Launch Date Jul 17, 2022
Age 3.2 years
Type internet

Technical Details

Classification Payload
Mass 297.00 kg
Dry Mass 275.00 kg
Total Mass 297.00 kg
Length 0.20 m
Diameter 2.80 m
Span 9.00 m
Shape Box + pan
Manufacturer SPXS
Bus Type Starlink
Phase Status In Orbit
Owner/State SPXS/US

Large Constellations

Loading constellations...